When you browse on this site, cookies collect data to enhance your experience and personalize the content and advertising you see.
Visit our Privacy Policy to learn more. By continuing to use the site, you agree to this use of cookies and data.
  • In Deutschland
  • Länderverzeichnis
  • Für 7 Tage
  • Wassertemperatur
  • Satellitenkarten
  • Wetterkarte
  • Widgets
  • user-avatar
    Anmelden

    Stündliche Wetter San Juan

    Heute, 19 Juni, Mittwoch

    Zeit Temperatur Niederschläge Wind Luftdruck Luftfeuchtigkeit
    00:00 +10°C° 0 mm 3 m/S 708 mmHg 19%
    01:00 +9°C° 0 mm 3 m/S 708 mmHg 19%
    02:00 +9°C° 0 mm 3 m/S 708 mmHg 19%
    03:00 +8°C° 0 mm 2 m/S 708 mmHg 20%
    04:00 +8°C° 0 mm 1 m/S 708 mmHg 20%
    05:00 +8°C° 0 mm 1 m/S 708 mmHg 22%
    06:00 +8°C° 0 mm 1 m/S 708 mmHg 24%
    07:00 +6°C° 0 mm 0 m/S 708 mmHg 25%
    08:00 +10°C° 0 mm 1 m/S 709 mmHg 22%
    09:00 +13°C° 0 mm 1 m/S 710 mmHg 18%
    10:00 +16°C° 0 mm 1 m/S 711 mmHg 15%
    11:00 +16°C° 0 mm 1 m/S 710 mmHg 14%
    12:00 +17°C° 0 mm 2 m/S 710 mmHg 14%
    13:00 +18°C° 0 mm 2 m/S 709 mmHg 13%
    14:00 +18°C° 0 mm 2 m/S 709 mmHg 15%
    15:00 +17°C° 0 mm 2 m/S 709 mmHg 16%
    16:00 +17°C° 0 mm 2 m/S 708 mmHg 17%
    17:00 +15°C° 0 mm 2 m/S 708 mmHg 20%
    18:00 +14°C° 0 mm 1 m/S 708 mmHg 23%
    19:00 +12°C° 0 mm 1 m/S 708 mmHg 26%
    20:00 +11°C° 0 mm 1 m/S 708 mmHg 27%
    21:00 +11°C° 0 mm 1 m/S 708 mmHg 27%
    22:00 +11°C° 0 mm 1 m/S 708 mmHg 28%
    23:00 +10°C° 0 mm 1 m/S 708 mmHg 28%

    Morgen, 20 Juni, Donnerstag

    Zeit Temperatur Niederschläge Wind Luftdruck Luftfeuchtigkeit
    00:00 +9°C° 0 mm 0 m/S 707 mmHg 29%
    01:00 +8°C° 0 mm 0 m/S 707 mmHg 29%
    02:00 +8°C° 0 mm 0 m/S 707 mmHg 30%
    03:00 +8°C° 0 mm 0 m/S 706 mmHg 30%
    04:00 +7°C° 0 mm 0 m/S 706 mmHg 30%
    05:00 +7°C° 0 mm 0 m/S 706 mmHg 30%
    06:00 +7°C° 0 mm 0 m/S 706 mmHg 30%
    07:00 +7°C° 0 mm 0 m/S 706 mmHg 30%
    08:00 +11°C° 0 mm 1 m/S 706 mmHg 26%
    09:00 +13°C° 0 mm 1 m/S 707 mmHg 23%
    10:00 +16°C° 0 mm 2 m/S 707 mmHg 19%
    11:00 +17°C° 0 mm 2 m/S 706 mmHg 18%
    12:00 +18°C° 0 mm 2 m/S 705 mmHg 17%
    13:00 +19°C° 0 mm 3 m/S 705 mmHg 16%
    14:00 +19°C° 0 mm 2 m/S 704 mmHg 17%
    15:00 +18°C° 0 mm 2 m/S 704 mmHg 19%
    16:00 +18°C° 0 mm 2 m/S 704 mmHg 20%
    17:00 +16°C° 0 mm 1 m/S 704 mmHg 23%
    18:00 +14°C° 0 mm 1 m/S 703 mmHg 26%
    19:00 +13°C° 0 mm 1 m/S 703 mmHg 28%
    20:00 +12°C° 0 mm 1 m/S 704 mmHg 29%
    21:00 +12°C° 0 mm 1 m/S 704 mmHg 29%
    22:00 +12°C° 0 mm 2 m/S 704 mmHg 30%
    23:00 +12°C° 0 mm 1 m/S 703 mmHg 33%

    übermorgen, 21 Juni, Freitag

    Zeit Temperatur Niederschläge Wind Luftdruck Luftfeuchtigkeit
    00:00 +11°C° 0 mm 1 m/S 703 mmHg 36%
    01:00 +10°C° 0 mm 1 m/S 702 mmHg 39%
    02:00 +10°C° 0 mm 1 m/S 702 mmHg 41%
    03:00 +10°C° 0 mm 1 m/S 702 mmHg 43%
    04:00 +9°C° 0 mm 1 m/S 702 mmHg 45%
    05:00 +9°C° 0 mm 1 m/S 702 mmHg 44%
    06:00 +9°C° 0 mm 1 m/S 703 mmHg 43%
    07:00 +8°C° 0 mm 2 m/S 703 mmHg 41%
    08:00 +12°C° 0 mm 2 m/S 704 mmHg 36%
    09:00 +14°C° 0 mm 2 m/S 705 mmHg 31%
    10:00 +17°C° 0 mm 2 m/S 705 mmHg 26%
    11:00 +18°C° 0 mm 2 m/S 705 mmHg 24%
    12:00 +19°C° 0 mm 3 m/S 705 mmHg 22%
    13:00 +21°C° 0 mm 3 m/S 705 mmHg 20%
    14:00 +20°C° 0 mm 3 m/S 705 mmHg 22%
    15:00 +20°C° 0 mm 3 m/S 706 mmHg 24%
    16:00 +19°C° 0 mm 3 m/S 706 mmHg 26%
    17:00 +17°C° 0 mm 3 m/S 706 mmHg 31%
    18:00 +16°C° 0 mm 2 m/S 706 mmHg 35%
    19:00 +14°C° 0 mm 1 m/S 706 mmHg 40%
    20:00 +13°C° 0 mm 1 m/S 706 mmHg 40%
    21:00 +13°C° 0 mm 1 m/S 706 mmHg 42%
    22:00 +12°C° 0 mm 1 m/S 707 mmHg 45%
    23:00 +12°C° 0 mm 1 m/S 706 mmHg 47%

    22 Juni, Samstag

    Zeit Temperatur Niederschläge Wind Luftdruck Luftfeuchtigkeit
    00:00 +10°C° 0 mm 0 m/S 706 mmHg 49%
    01:00 +10°C° 0 mm 0 m/S 706 mmHg 52%
    02:00 +9°C° 0 mm 0 m/S 705 mmHg 54%
    03:00 +9°C° 0 mm 0 m/S 705 mmHg 57%
    04:00 +8°C° 0 mm 0 m/S 705 mmHg 59%
    05:00 +8°C° 0 mm 0 m/S 705 mmHg 59%
    06:00 +8°C° 0 mm 0 m/S 705 mmHg 59%
    07:00 +8°C° 0 mm 0 m/S 705 mmHg 60%
    08:00 +11°C° 0 mm 1 m/S 706 mmHg 52%
    09:00 +14°C° 0 mm 1 m/S 706 mmHg 45%
    10:00 +16°C° 0 mm 1 m/S 707 mmHg 37%
    11:00 +18°C° 0 mm 1 m/S 706 mmHg 35%
    12:00 +19°C° 0 mm 1 m/S 705 mmHg 32%
    13:00 +19°C° 0 mm 2 m/S 705 mmHg 29%
    14:00 +19°C° 0 mm 2 m/S 705 mmHg 30%
    15:00 +19°C° 0 mm 2 m/S 704 mmHg 31%
    16:00 +19°C° 0 mm 2 m/S 704 mmHg 32%
    17:00 +18°C° 0 mm 1 m/S 704 mmHg 37%
    18:00 +16°C° 0 mm 1 m/S 704 mmHg 42%
    19:00 +14°C° 0 mm 1 m/S 704 mmHg 48%
    20:00 +14°C° 0 mm 1 m/S 704 mmHg 49%
    21:00 +13°C° 0 mm 1 m/S 704 mmHg 50%
    22:00 +13°C° 0 mm 1 m/S 704 mmHg 51%
    23:00 +13°C° 0 mm 1 m/S 704 mmHg 50%

    23 Juni, Sonntag

    Zeit Temperatur Niederschläge Wind Luftdruck Luftfeuchtigkeit
    00:00 +13°C° 0 mm 1 m/S 703 mmHg 49%
    01:00 +13°C° 0 mm 1 m/S 703 mmHg 48%
    02:00 +13°C° 0 mm 2 m/S 703 mmHg 45%
    03:00 +13°C° 0 mm 2 m/S 702 mmHg 41%
    04:00 +14°C° 0 mm 2 m/S 702 mmHg 38%
    05:00 +14°C° 0 mm 2 m/S 702 mmHg 39%
    06:00 +13°C° 0 mm 1 m/S 702 mmHg 40%
    07:00 +13°C° 0 mm 1 m/S 702 mmHg 41%
    08:00 +15°C° 0 mm 1 m/S 702 mmHg 37%
    09:00 +17°C° 0 mm 2 m/S 702 mmHg 33%
    10:00 +19°C° 0 mm 2 m/S 703 mmHg 29%
    11:00 +20°C° 0 mm 3 m/S 702 mmHg 28%
    12:00 +21°C° 0 mm 3 m/S 701 mmHg 28%
    13:00 +22°C° 0 mm 3 m/S 701 mmHg 27%
    14:00 +21°C° 0 mm 4 m/S 700 mmHg 30%
    15:00 +20°C° 0 mm 4 m/S 700 mmHg 33%
    16:00 +20°C° 0 mm 4 m/S 700 mmHg 36%
    17:00 +19°C° 0 mm 4 m/S 700 mmHg 41%
    18:00 +17°C° 0 mm 4 m/S 700 mmHg 45%
    19:00 +15°C° 0 mm 4 m/S 700 mmHg 50%
    20:00 +15°C° 0 mm 4 m/S 700 mmHg 54%
    21:00 +14°C° 0 mm 4 m/S 700 mmHg 58%
    22:00 +14°C° 0 mm 4 m/S 700 mmHg 62%
    23:00 +13°C° 0 mm 3 m/S 700 mmHg 67%

    24 Juni, Montag

    Zeit Temperatur Niederschläge Wind Luftdruck Luftfeuchtigkeit
    00:00 +13°C° 0 mm 3 m/S 700 mmHg 72%
    01:00 +12°C° 0 mm 3 m/S 699 mmHg 77%
    02:00 +12°C° 0 mm 2 m/S 699 mmHg 78%
    03:00 +12°C° 0 mm 2 m/S 698 mmHg 79%
    04:00 +11°C° 0 mm 1 m/S 698 mmHg 80%
    05:00 +11°C° 0 mm 1 m/S 698 mmHg 79%
    06:00 +12°C° 0 mm 1 m/S 698 mmHg 78%
    07:00 +12°C° 0 mm 1 m/S 698 mmHg 77%
    08:00 +13°C° 0 mm 1 m/S 698 mmHg 73%
    09:00 +14°C° 0 mm 2 m/S 698 mmHg 68%
    10:00 +15°C° 0 mm 2 m/S 698 mmHg 64%
    11:00 +16°C° 0 mm 2 m/S 698 mmHg 58%
    12:00 +17°C° 0 mm 3 m/S 697 mmHg 52%
    13:00 +19°C° 0 mm 3 m/S 697 mmHg 47%
    14:00 +19°C° 0 mm 4 m/S 697 mmHg 43%
    15:00 +19°C° 0 mm 4 m/S 697 mmHg 40%
    16:00 +19°C° 0 mm 4 m/S 697 mmHg 37%
    17:00 +17°C° 0 mm 4 m/S 697 mmHg 44%
    18:00 +15°C° 0 mm 4 m/S 698 mmHg 50%
    19:00 +14°C° 0 mm 5 m/S 698 mmHg 57%
    20:00 +13°C° 0 mm 4 m/S 698 mmHg 63%
    21:00 +12°C° 0 mm 4 m/S 698 mmHg 70%
    22:00 +11°C° 0 mm 3 m/S 698 mmHg 76%
    23:00 +11°C° 0 mm 4 m/S 698 mmHg 78%
    Mehr zeigen